TimeMDT,TemperatureF,Dew PointF,Humidity,Sea Level PressureIn,VisibilityMPH,Wind Direction,Wind SpeedMPH,Gust SpeedMPH,PrecipitationIn,Events,Conditions,WindDirDegrees,DateUTC
12:51 AM,63.0,19.9,19,29.70,10.0,Calm,Calm,-,N/A,,Clear,0,2013-04-29 06:51:00
1:51 AM,63.0,21.9,21,29.70,10.0,ESE,9.2,-,N/A,,Clear,110,2013-04-29 07:51:00
2:51 AM,64.9,24.1,21,29.70,10.0,South,5.8,-,N/A,,Clear,190,2013-04-29 08:51:00
3:51 AM,63.0,25.0,24,29.72,10.0,SSE,6.9,-,N/A,,Clear,160,2013-04-29 09:51:00
4:51 AM,60.1,28.0,30,29.73,10.0,SSE,5.8,-,N/A,,Clear,150,2013-04-29 10:51:00
5:51 AM,59.0,33.1,38,29.74,10.0,SSE,6.9,-,N/A,,Clear,150,2013-04-29 11:51:00
6:51 AM,60.1,35.1,39,29.73,10.0,SE,11.5,-,N/A,,Clear,130,2013-04-29 12:51:00
7:51 AM,63.0,39.0,41,29.74,10.0,SSE,8.1,-,N/A,,Clear,150,2013-04-29 13:51:00
8:51 AM,66.9,41.0,39,29.75,10.0,SSE,10.4,-,N/A,,Clear,160,2013-04-29 14:51:00
9:51 AM,71.1,39.0,31,29.74,10.0,SSE,11.5,-,N/A,,Clear,150,2013-04-29 15:51:00
10:51 AM,77.0,34.0,21,29.73,10.0,SSW,10.4,-,N/A,,Clear,200,2013-04-29 16:51:00
11:51 AM,81.0,28.9,15,29.72,10.0,Variable,5.8,16.1,N/A,,Clear,0,2013-04-29 17:51:00
12:51 PM,82.9,12.9,7,29.69,10.0,West,9.2,-,N/A,,Clear,270,2013-04-29 18:51:00
1:52 PM,87.8,6.8,5,29.85,10.0,West,13.8,19.6,N/A,,Clear,280,2013-04-29 19:52:00
2:51 PM,90.0,5.0,4,29.60,10.0,West,15.0,-,N/A,,Clear,270,2013-04-29 20:51:00
3:51 PM,89.1,1.9,4,29.59,10.0,West,9.2,-,N/A,,Clear,280,2013-04-29 21:51:00
4:51 PM,89.1,1.0,4,29.57,10.0,West,8.1,18.4,N/A,,Clear,270,2013-04-29 22:51:00
5:51 PM,89.1,1.0,4,29.56,10.0,West,16.1,21.9,N/A,,Clear,270,2013-04-29 23:51:00
6:51 PM,88.0,-0.0,4,29.56,10.0,WNW,8.1,-,N/A,,Clear,290,2013-04-30 00:51:00
7:51 PM,84.9,-0.0,4,29.56,10.0,West,5.8,-,N/A,,Clear,260,2013-04-30 01:51:00
8:51 PM,80.1,3.0,5,29.57,10.0,WSW,5.8,-,N/A,,Clear,240,2013-04-30 02:51:00
9:51 PM,77.0,3.9,6,29.58,10.0,WSW,5.8,-,N/A,,Clear,240,2013-04-30 03:51:00
10:51 PM,77.0,3.9,6,29.57,10.0,SSW,3.5,-,N/A,,Clear,200,2013-04-30 04:51:00
11:51 PM,71.1,9.0,9,29.57,10.0,SE,6.9,-,N/A,,Clear,140,2013-04-30 05:51:00